Weather in Scottsdale

United States     33°37′58″N   111°51′22″W
temp.,
°C
wind,
m/s
gust,
m/s
humid.,
%
clouds,
%
prec.,
mm/h
press.,
hPa
HPBL,
m
18 september, sat
sat1823:00+29w22354 0.0 101320
02:00+27n113616 0.0 101311
05:00+26ne223949 0.3 101315
08:00+27nne223618 0.4 1015139
11:00+31wsw22291 0.8 10141131
14:00+33wsw33317 0.3 10111948
17:00+29w894687 0.4 1012895
20:00+26ne34552 2.0 1013189
19 september, sun
sun1923:00+26nne22582 2.6 101357
02:00+26nne22580 0.1 101217
05:00+24nne22610 0.1 101120
08:00+26ne11530 0.0 1012241
11:00+30s33420 0.0 10111229
14:00+33sw56340 0.0 10082455
17:00+33w66234 0.0 10072736
20:00+30wnw34240 0.0 100878
20 september, mon
mon2023:00+28n22230 0.0 100913
02:00+27sw11270 0.0 100911
05:00+25nw11320 0.0 101011
08:00+27nne22270 0.0 1012173
11:00+31sw22220 0.0 10131467
14:00+33wsw55150 0.0 10112215
17:00+33w45140 0.0 10112222
20:00+30nw23170 0.0 101217
21 september, tue
tue2123:00+28nne22195 0.0 101312
02:00+26nne332169 0.0 101519
05:00+24nne43230 0.0 101627
08:00+26nne33210 0.0 1018144
11:00+32n11140 0.0 1017928
14:00+35sw22120 0.0 10152073
17:00+35sw32100 0.0 10152021
20:00+30w00180 0.0 101611
22 september, wed
wed2223:00+29n22180 0.0 101611
02:00+27nne33200 0.0 101718
05:00+25nne33230 0.0 101723
08:00+27nne2322100 0.0 1018117
11:00+32se222198 0.0 10171016
14:00+33ssw3222100 0.0 10151506
17:00+33sw3222100 0.0 10131203
20:00+26w91256100 0.0 1015486